Location: Peterborough
(44.3091°N, 78.3197°W)
Time: 01:24:44
(UTC-04:00)

Tiangong - Pass Details

Date: 09 June 2023
Orbit: 371 x 384 km, 41.5° (Epoch: 02 October)

Event Time Altitude Azimuth Distance (km) Brightness Sun altitude
Exits shadow 01:53:27 - 92° (E) 1,882 1.5 -22.1°
Enters shadow 02:57:37 -53° 267° (W) 10,650 5.1 -18.6°
Maximum altitude 03:26:32 50° 180° (S) 491 -2.0 -16.1°
